国际通讯卫星 4-F4星 (INTELSAT 4-F4)

导读

INTELSAT 4-F4是国际通信卫星组织(ITSO)运营的第四代国际通信卫星,于1972年1月23日发射升空,是该系列中的第四颗卫星。该卫星由休斯空间与通信公司基于HS-312平台研制,发射质量约1414千克,设计寿命7年,配备12路C频段转发器。作为早期地球同步轨道通信卫星,它主要承担跨洋洲际通信、广播电视传输任务,推动了全球卫星通信网络的早期建设,在国际通信发展进程中具有标志性意义。

基本信息
目录编号:
5775
目录名称:
INTELSAT 4-F4
国际标识:
1972-003A
轨道中心:
EARTH
卫星名称:
国际通讯卫星 4-F4星
卫星全名:
国际通讯卫星 4-F4星 (INTELSAT 4-F4)
卫星状态:
在轨 (已飞行19909 天)
发射日期:
1972-01-23 UTC
国别 :
(ITSO)
星等 :
--
轨道信息
数据来源 国际轨道数据 AOE轨道数据
星历时间 2026-07-27T01:03:17+0800
1天前
查看轨道信息
2026-07-25T03:00:00+0800
3天前
查看轨道信息
半长轴 42290.873km 42290.675km
偏心率 0.0001946 0.0002002
轨道倾角 6.654° 6.659°
近地点辐角 156.569° 156.677°
升交点赤经 294.069° 294.083°
平近点角 204.510° 234.769°
近地点 35904.506km 35904.071km
远地点 35920.966km 35921.005km
周期 1442.546分钟 1442.536分钟
每日圈数 0.998235 0.998242
详细信息
卫星平台:
HS-353
平衡模式:
自旋稳定
覆盖范围:
全球
运营商:
国际卫星通信公司
运营商所在国:
美国
制造商(研发单位):
休斯公司
制造商所在国:
美国
使用方式:
暂无
卫星简介
从1965年4月至1984年3月,国际通信卫星组织发射了5代、6种不同性能的卫星共计35颗,除6颗卫星因运载火箭和远地点发动机故障而发射失败外,其余29颗卫星均被送到了预定的静止轨道位置。1984年8月前后,国际通信卫星组织利用部署在大西洋、太平洋、印度洋上空的15颗国际通信卫星,为遍布世界各地170多个国家或地区提供电话、电传、电报、电视和数据传输等电信业务;该卫星已退役。
2D轨道图
3D轨道图
轨道高度分析图
轨道倾角分析图
轨道综合分析图
查看轨道综合分析图